Content
SEND FEEDBACK

Daily
Averages
Monthly
Summary
United States of America

TAMUNING, GUAM


Home > North America > United States > Guam
Elevation: 250 feet     Latitude: 13 29N     Longitude: 144 47E

WEATHER
 
SELECT A DAY
Number of Records: 354,808;   Date Range: 1/1/95 - 11/27/14
 
SHARE

PRINT THIS DATA

[ ← Previous Day ]
WEATHER ALMANAC - JULY 11, 2014
[ Next Day → ]
[ °C ]   °F
Weather ElementAverageHighLow
Temperature79.2 °F85.3 °F (12:58 pm)77 °F (9:25 am)
Dewpoint75.5 °F77 °F (12:13 am)73.9 °F (11:58 am)
Humidity89 %100 % (6:08 am)72 % (3:58 pm)
Barometer29.82 in29.87 in (1:23 am)29.78 in (1:58 pm)
Wind Speed3.3 mph10.4 mph (12:13 am)
Weather ElementAverage
Visibility8.9 mi
Wind DirectionSSW (207.4 °)

Weather ElementTotal
Precipitation0.74 in
Cooling Degree Days16.2 (Base 65)
Growing Degree Days31.2 (Base 50)
Averaged from 130 records on July 11, 2014
WEATHER CONDITIONS BREAKOUT
WIND DIRECTION BREAKOUT
WEATHER BY HOUR - JULY 11, 2014
[ °C ]   °F
Local TimeTemperatureDewpointHumidityBarometerVisibilityWind DirectionWind SpeedGust SpeedPrecipitationEventsConditions
12:58 AM80.1 °F75.6 °F86 %29.81 in10.0 miEast (100°)5.8 mphPartly Cloudy
12:58 AM80.1 °F75.6 °F86 %29.81 in10.0 miEast (100°)5.8 mphPartly Cloudy
1:58 AM80.2 °F75.6 °F86 %29.79 in10.0 miESE (110°)3.5 mphPartly Cloudy
1:58 AM80.2 °F75.6 °F86 %29.79 in10.0 miESE (110°)3.5 mphPartly Cloudy
2:58 AM80.2 °F75.2 °F85 %29.81 in10.0 miEast (100°)2.3 mphScattered Clouds
2:58 AM80.2 °F75.2 °F85 %29.81 in10.0 miEast (100°)2.3 mphScattered Clouds
3:58 AM78.1 °F75.2 °F91 %29.79 in10.0 miCalmClear
3:58 AM78.1 °F75.2 °F91 %29.79 in10.0 miCalmClear
4:58 AM78.4 °F73.9 °F86 %29.81 in10.0 miSW (220°)4.6 mphClear
4:58 AM78.4 °F73.9 °F86 %29.81 in10.0 miSW (220°)4.6 mphClear
5:58 AM77.4 °F74.3 °F90 %29.81 in10.0 miWSW (240°)1.2 mphClear
5:58 AM77.4 °F74.3 °F90 %29.81 in10.0 miWSW (240°)1.2 mphClear
6:58 AM78.3 °F74.5 °F88 %29.82 in10.0 miWest (260°)3.5 mphClear
6:58 AM78.3 °F74.5 °F88 %29.82 in10.0 miWest (260°)3.5 mphClear
7:58 AM82.6 °F75.9 °F80 %29.84 in10.0 miWest (280°)2.3 mphClear
7:58 AM82.6 °F75.9 °F80 %29.84 in10.0 miWest (280°)2.3 mphClear
8:58 AM82.8 °F75.2 °F78 %29.86 in10.0 miVariable2.3 mphPartly Cloudy
8:58 AM82.8 °F75.2 °F78 %29.86 in10.0 miVariable2.3 mphPartly Cloudy
9:58 AM85.3 °F75.2 °F72 %29.83 in10.0 miNNE (20°)4.6 mphScattered Clouds
9:58 AM85.3 °F75.2 °F72 %29.83 in10.0 miNNE (20°)4.6 mphScattered Clouds
10:58 AM84.9 °F75.2 °F73 %29.83 in10.0 miNorthClear
10:58 AM84.9 °F75.2 °F73 %29.83 in10.0 miNorthClear
11:58 AM84.6 °F75.9 °F75 %29.82 in10.0 miNNE (20°)6.9 mphPartly Cloudy
11:58 AM84.6 °F75.9 °F75 %29.82 in10.0 miNNE (20°)6.9 mphPartly Cloudy
12:58 PM83.8 °F75.7 °F76 %29.82 in10.0 miNNE (30°)8.1 mphPartly Cloudy
12:58 PM83.8 °F75.7 °F76 %29.82 in10.0 miNNE (30°)8.1 mphPartly Cloudy
1:03 PM84.2 °F75.2 °F74 %29.84 in10.0 miNNE (30°)9.2 mphRainLight Rain
1:03 PM84.2 °F75.2 °F74 %29.84 in10.0 miNNE (30°)9.2 mphRainLight Rain
1:18 PM82.4 °F77.0 °F84 %29.84 in6.0 miNNE (20°)10.4 mphRainLight Rain
1:18 PM82.4 °F77.0 °F84 %29.84 in6.0 miNNE (20°)10.4 mphRainLight Rain
1:33 PM78.8 °F77.0 °F94 %29.84 in8.0 miNE (40°)5.8 mphRainLight Rain
1:33 PM78.8 °F77.0 °F94 %29.84 in8.0 miNE (40°)5.8 mphRainLight Rain
1:38 PM78.8 °F77.0 °F94 %29.84 in8.0 miNE (50°)3.5 mphLight Drizzle
1:38 PM78.8 °F77.0 °F94 %29.84 in8.0 miNE (50°)3.5 mphLight Drizzle
1:43 PM78.8 °F77.0 °F94 %29.83 in8.0 miNNE (20°)4.6 mphLight Drizzle
1:43 PM78.8 °F77.0 °F94 %29.83 in8.0 miNNE (20°)4.6 mphLight Drizzle
1:53 PM78.8 °F77.0 °F94 %29.83 in10.0 miNNE (30°)2.3 mphPartly Cloudy
1:53 PM78.8 °F77.0 °F94 %29.83 in10.0 miNNE (30°)2.3 mphPartly Cloudy
1:58 PM78.6 °F76.8 °F94 %29.81 in10.0 miEast (80°)1.2 mph0.03 inPartly Cloudy
1:58 PM78.6 °F76.8 °F94 %29.81 in10.0 miEast (80°)1.2 mph0.03 inPartly Cloudy
1:59 PM78.8 °F77.0 °F94 %29.84 in10.0 miENE (70°)1.2 mphLight Drizzle
1:59 PM78.8 °F77.0 °F94 %29.84 in10.0 miENE (70°)1.2 mphLight Drizzle
2:24 PM78.8 °F77.0 °F94 %29.84 in6.0 miNorth (360°)4.6 mphRainRain
2:24 PM78.8 °F77.0 °F94 %29.84 in6.0 miNorth (360°)4.6 mphRainRain
2:34 PM78.8 °F75.2 °F89 %29.84 in8.0 miNorth (350°)3.5 mphRainLight Rain
2:34 PM78.8 °F75.2 °F89 %29.84 in8.0 miNorth (350°)3.5 mphRainLight Rain
2:44 PM78.8 °F75.2 °F89 %29.83 in10.0 miNNW (340°)3.5 mphRainLight Rain
2:44 PM78.8 °F75.2 °F89 %29.83 in10.0 miNNW (340°)3.5 mphRainLight Rain
2:58 PM78.4 °F75.9 °F92 %29.81 in7.0 miWest (280°)6.9 mph0.04 inRainLight Rain
2:58 PM78.4 °F75.9 °F92 %29.81 in7.0 miWest (280°)6.9 mph0.04 inRainLight Rain
3:13 PM77.0 °F75.2 °F94 %29.83 in10.0 miWest (260°)4.6 mphRainLight Rain
3:13 PM77.0 °F75.2 °F94 %29.83 in10.0 miWest (260°)4.6 mphRainLight Rain
3:21 PM78.8 °F75.2 °F89 %29.82 in10.0 miWest (260°)5.8 mphPartly Cloudy
3:21 PM78.8 °F75.2 °F89 %29.82 in10.0 miWest (260°)5.8 mphPartly Cloudy
3:55 PM78.8 °F77.0 °F94 %29.79 in10.0 miWest (280°)2.3 mphOvercast
3:55 PM78.8 °F77.0 °F94 %29.79 in10.0 miWest (280°)2.3 mphOvercast
3:56 PM78.8 °F75.2 °F89 %29.82 in10.0 miWest (270°)2.3 mphOvercast
3:56 PM78.8 °F75.2 °F89 %29.82 in10.0 miWest (270°)2.3 mphOvercast
4:01 PM78.8 °F75.2 °F89 %29.82 in10.0 miWNW (290°)2.3 mphOvercast
4:01 PM78.8 °F75.2 °F89 %29.82 in10.0 miWNW (290°)2.3 mphOvercast
4:06 PM78.8 °F75.2 °F89 %29.82 in10.0 miWNW (290°)3.5 mphOvercast
4:06 PM78.8 °F75.2 °F89 %29.82 in10.0 miWNW (290°)3.5 mphOvercast
4:11 PM78.8 °F75.2 °F89 %29.82 in10.0 miWest (280°)3.5 mphOvercast
4:11 PM78.8 °F75.2 °F89 %29.82 in10.0 miWest (280°)3.5 mphOvercast
4:16 PM78.8 °F75.2 °F89 %29.82 in10.0 miWNW (300°)1.2 mphOvercast
4:16 PM78.8 °F75.2 °F89 %29.82 in10.0 miWNW (300°)1.2 mphOvercast
4:21 PM78.8 °F75.2 °F89 %29.82 in10.0 miWNW (290°)2.3 mphOvercast
4:21 PM78.8 °F75.2 °F89 %29.82 in10.0 miWNW (290°)2.3 mphOvercast
4:26 PM78.8 °F75.2 °F89 %29.82 in10.0 miNW (310°)4.6 mphMostly Cloudy
4:26 PM78.8 °F75.2 °F89 %29.82 in10.0 miNW (310°)4.6 mphMostly Cloudy
4:36 PM78.8 °F75.2 °F89 %29.81 in10.0 miWNW (290°)2.3 mphOvercast
4:36 PM78.8 °F75.2 °F89 %29.81 in10.0 miWNW (290°)2.3 mphOvercast
4:41 PM78.8 °F75.2 °F89 %29.81 in10.0 miNNW (330°)3.5 mphOvercast
4:41 PM78.8 °F75.2 °F89 %29.81 in10.0 miNNW (330°)3.5 mphOvercast
4:46 PM78.8 °F75.2 °F89 %29.81 in10.0 miNW (320°)4.6 mphOvercast
4:46 PM78.8 °F75.2 °F89 %29.81 in10.0 miNW (320°)4.6 mphOvercast
4:51 PM78.8 °F75.2 °F89 %29.81 in10.0 miNNW (330°)4.6 mphOvercast
4:51 PM78.8 °F75.2 °F89 %29.81 in10.0 miNNW (330°)4.6 mphOvercast
4:56 PM78.8 °F75.2 °F89 %29.81 in10.0 miNNW (330°)4.6 mphOvercast
4:56 PM78.8 °F75.2 °F89 %29.81 in10.0 miNNW (330°)4.6 mphOvercast
4:58 PM78.6 °F75.0 °F89 %29.78 in10.0 miNNW (330°)4.6 mphOvercast
4:58 PM78.6 °F75.0 °F89 %29.78 in10.0 miNNW (330°)4.6 mphOvercast
5:03 PM78.8 °F75.2 °F89 %29.81 in10.0 miVariable3.5 mphOvercast
5:03 PM78.8 °F75.2 °F89 %29.81 in10.0 miVariable3.5 mphOvercast
5:08 PM78.8 °F75.2 °F89 %29.81 in10.0 miNW (320°)4.6 mphLight Drizzle
5:08 PM78.8 °F75.2 °F89 %29.81 in10.0 miNW (320°)4.6 mphLight Drizzle
5:13 PM78.8 °F75.2 °F89 %29.81 in10.0 miWNW (300°)3.5 mphLight Drizzle
5:13 PM78.8 °F75.2 °F89 %29.81 in10.0 miWNW (300°)3.5 mphLight Drizzle
5:18 PM78.8 °F75.2 °F89 %29.81 in10.0 miWest (270°)3.5 mphLight Drizzle
5:18 PM78.8 °F75.2 °F89 %29.81 in10.0 miWest (270°)3.5 mphLight Drizzle
5:23 PM78.8 °F75.2 °F89 %29.81 in10.0 miWest (270°)3.5 mphRainLight Rain
5:23 PM78.8 °F75.2 °F89 %29.81 in10.0 miWest (270°)3.5 mphRainLight Rain
5:28 PM78.8 °F75.2 °F89 %29.81 in10.0 miWSW (240°)2.3 mphRainLight Rain
5:28 PM78.8 °F75.2 °F89 %29.81 in10.0 miWSW (240°)2.3 mphRainLight Rain
5:30 PM78.8 °F75.2 °F89 %29.81 in10.0 miWSW (250°)3.5 mphOvercast
5:30 PM78.8 °F75.2 °F89 %29.81 in10.0 miWSW (250°)3.5 mphOvercast
5:35 PM78.8 °F75.2 °F89 %29.81 in10.0 miWest (270°)3.5 mphOvercast
5:35 PM78.8 °F75.2 °F89 %29.81 in10.0 miWest (270°)3.5 mphOvercast
5:40 PM78.8 °F75.2 °F89 %29.81 in10.0 miWest (260°)2.3 mphOvercast
5:40 PM78.8 °F75.2 °F89 %29.81 in10.0 miWest (260°)2.3 mphOvercast
5:45 PM78.8 °F75.2 °F89 %29.81 in10.0 miWest (280°)2.3 mphOvercast
5:45 PM78.8 °F75.2 °F89 %29.81 in10.0 miWest (280°)2.3 mphOvercast
5:50 PM78.8 °F75.2 °F89 %29.81 in10.0 miWNW (290°)1.2 mphOvercast
5:50 PM78.8 °F75.2 °F89 %29.81 in10.0 miWNW (290°)1.2 mphOvercast
5:55 PM78.8 °F75.2 °F89 %29.82 in10.0 miNW (320°)2.3 mphOvercast
5:55 PM78.8 °F75.2 °F89 %29.82 in10.0 miNW (320°)2.3 mphOvercast
5:58 PM79.0 °F75.9 °F90 %29.79 in10.0 miNW (320°)2.3 mph0.00 inPartly Cloudy
5:58 PM79.0 °F75.9 °F90 %29.79 in10.0 miNW (320°)2.3 mph0.00 inPartly Cloudy
6:58 PM78.4 °F75.7 °F91 %29.81 in10.0 miWNW (300°)2.3 mphMostly Cloudy
6:58 PM78.4 °F75.7 °F91 %29.81 in10.0 miWNW (300°)2.3 mphMostly Cloudy
7:58 PM77.7 °F76.3 °F95 %29.81 in10.0 miNNW (340°)3.5 mphClear
7:58 PM77.7 °F76.3 °F95 %29.81 in10.0 miNNW (340°)3.5 mphClear
8:58 PM77.7 °F75.4 °F92 %29.83 in10.0 miWest (260°)2.3 mph0.00 inRainLight Rain
8:58 PM77.7 °F75.4 °F92 %29.83 in10.0 miWest (260°)2.3 mph0.00 inRainLight Rain
9:58 PM77.4 °F75.9 °F95 %29.84 in9.0 miCalm0.03 inRainLight Rain
9:58 PM77.4 °F75.9 °F95 %29.84 in9.0 miCalm0.03 inRainLight Rain
10:58 PM77.4 °F75.6 °F94 %29.86 in6.0 miNorth (360°)3.5 mph0.07 inRainRain
10:58 PM77.4 °F75.6 °F94 %29.86 in6.0 miNorth (360°)3.5 mph0.07 inRainRain
11:21 PM77.0 °F75.2 °F94 %29.87 in3.0 miNNW (340°)1.2 mphRainRain
11:21 PM77.0 °F75.2 °F94 %29.87 in3.0 miNNW (340°)1.2 mphRainRain
11:23 PM77.0 °F75.2 °F94 %29.87 in3.0 miNNW (340°)1.2 mphRainHeavy Rain
11:23 PM77.0 °F75.2 °F94 %29.87 in3.0 miNNW (340°)1.2 mphRainHeavy Rain
11:28 PM77.0 °F75.2 °F94 %29.87 in3.0 miCalmRainRain
11:28 PM77.0 °F75.2 °F94 %29.87 in3.0 miCalmRainRain
11:48 PM77.0 °F75.2 °F94 %29.87 in2.0 miNNW (330°)1.2 mphRainHeavy Rain
11:48 PM77.0 °F75.2 °F94 %29.87 in2.0 miNNW (330°)1.2 mphRainHeavy Rain
11:53 PM77.0 °F77.0 °F100 %29.87 in1.5 miCalmRainHeavy Rain
11:53 PM77.0 °F77.0 °F100 %29.87 in1.5 miCalmRainHeavy Rain
11:58 PM77.4 °F76.1 °F96 %29.84 in2.0 miNorth (10°)2.3 mph0.20 inRainHeavy Rain
11:58 PM77.4 °F76.1 °F96 %29.84 in2.0 miNorth (10°)2.3 mph0.20 inRainHeavy Rain
Hourly data recorded from PGUA, located miles away from Tamuning, Guam







STORIES FROM OUR PARTNERS